Content
SEND FEEDBACK

Daily
Averages
Monthly
Summary
Austria

LINZ, AUSTRIA


Home > Europe > Austria
Elevation: 970 feet     Latitude: 48 14N     Longitude: 014 11E

WEATHER
 
SELECT A DAY
Number of Records: 317,028;   Date Range: 7/1/96 - 9/28/14
 
SHARE

PRINT THIS DATA

[ ← Previous Day ]
WEATHER ALMANAC - JANUARY 3, 2013
[ Next Day → ]
[ °C ]   °F
Weather ElementAverageHighLow
Temperature33.8 °F39.2 °F (10:20 pm)24.8 °F (5:50 am)
Dewpoint32.4 °F39.2 °F (10:20 pm)24.8 °F (5:50 am)
Humidity94.7 %100 % (12:50 am)73 % (1:00 pm)
Barometer30.52 in30.59 in (10:00 am)30.48 in (12:50 am)
Wind Speed8.3 mph16.1 mph (1:20 pm)
Weather ElementAverage
Visibility6.9 mi
Wind DirectionWSW (258.9 °)

Weather ElementTotal
Precipitation---
Heating Degree Days33 (Base 65)
Averaged from 55 records on January 3, 2013
WEATHER CONDITIONS BREAKOUT
WIND DIRECTION BREAKOUT
WEATHER BY HOUR - JANUARY 3, 2013
[ °C ]   °F
Local TimeTemperatureDewpointHumidityBarometerVisibilityWind DirectionWind SpeedGust SpeedPrecipitationEventsConditions
12:50 AM30.2 °F30.2 °F100 %30.48 in6.2 miSW (230°)2.3 mphPartly Cloudy
1:00 AM31.0 °F30.0 °F93 %30.55 in8.0 miSW (230°)2.2 mph
1:20 AM30.2 °F30.2 °F100 %30.48 in6.2 miSW (230°)3.5 mph
1:50 AM28.4 °F28.4 °F100 %30.48 in5.0 miSW (230°)2.3 mph
2:20 AM28.4 °F28.4 °F100 %30.48 in5.0 miVariable1.2 mph
2:50 AM26.6 °F26.6 °F100 %30.48 in4.3 miWNW (290°)3.5 mphMist
3:20 AM28.4 °F28.4 °F100 %30.48 in5.6 miVariable2.3 mph
3:50 AM28.4 °F28.4 °F100 %30.48 in5.6 miWNW (300°)3.5 mphFogFog
4:00 AM28.0 °F28.0 °F98 %30.56 in6.0 miWNW (300°)4.5 mphFogPatches of Fog
4:20 AM28.4 °F28.4 °F100 %30.48 in3.1 miNW (310°)2.3 mphFogFog
4:50 AM26.6 °F26.6 °F100 %30.51 in0.3 miWNW (300°)4.6 mphPartly Cloudy
5:20 AM26.6 °F26.6 °F100 %30.51 in0.6 miWest (260°)2.3 mphPartly Cloudy
5:50 AM24.8 °F24.8 °F100 %30.51 in4.3 miWest (280°)5.8 mphFogFog
6:20 AM28.4 °F28.4 °F100 %30.51 in5.6 miWSW (240°)6.9 mphMostly Cloudy
6:50 AM30.2 °F30.2 °F100 %30.51 inWSW (240°)6.9 mphClear
7:00 AM30.0 °F30.0 °F99 %30.58 in7.0 miWSW (240°)6.7 mphPartly Cloudy
7:20 AM30.2 °F30.2 °F100 %30.51 inWSW (240°)5.8 mphClear
7:50 AM30.2 °F30.2 °F100 %30.51 inWSW (250°)6.9 mphClear
8:20 AM30.2 °F30.2 °F100 %30.51 in6.2 miWNW (290°)3.5 mphMostly Cloudy
8:50 AM32.0 °F30.2 °F93 %30.51 in6.2 miSW (220°)4.6 mphMostly Cloudy
9:20 AM32.0 °F30.2 °F93 %30.54 in6.2 miVariable1.2 mphMostly Cloudy
9:50 AM32.0 °F30.2 °F93 %30.54 in6.2 miSW (230°)3.5 mphMostly Cloudy
10:00 AM32.0 °F31.0 °F93 %30.59 in31.0 miSW (230°)4.5 mphScattered Clouds
10:20 AM32.0 °F32.0 °F100 %30.54 in6.2 miWest (280°)5.8 mphMostly Cloudy
10:50 AM33.8 °F32.0 °F93 %30.54 in6.2 miWest (280°)9.2 mphMostly Cloudy
11:20 AM35.6 °F30.2 °F81 %30.54 in6.2 miWNW (290°)11.5 mphMostly Cloudy
11:50 AM35.6 °F32.0 °F87 %30.51 in6.2 miWNW (290°)13.8 mphMostly Cloudy
12:20 PM35.6 °F32.0 °F87 %30.51 in6.2 miWNW (290°)12.7 mphMostly Cloudy
12:50 PM37.4 °F32.0 °F81 %30.51 in6.2 miWNW (290°)10.4 mphSnowLight Snow Showers
1:00 PM37.0 °F31.0 °F73 %30.57 in28.0 miWNW (290°)11.2 mphSnowLight Snow Showers
1:20 PM37.4 °F32.0 °F81 %30.51 in6.2 miWest (270°)16.1 mphMostly Cloudy
1:50 PM35.6 °F32.0 °F87 %30.51 in6.2 miWNW (290°)13.8 mphMostly Cloudy
2:20 PM35.6 °F32.0 °F87 %30.51 in6.2 miWNW (290°)16.1 mphRain-SnowLight Rain Showers
2:50 PM37.4 °F33.8 °F87 %30.51 in6.2 miWest (280°)13.8 mphRainLight Rain Showers
3:20 PM37.4 °F33.8 °F87 %30.51 in6.2 miWest (280°)12.7 mphMostly Cloudy
3:50 PM37.4 °F35.6 °F93 %30.54 in6.2 miWest (280°)12.7 mphMostly Cloudy
4:00 PM37.0 °F35.0 °F91 %30.58 in13.0 miWest (280°)13.4 mphRainLight Rain Showers
4:20 PM37.4 °F35.6 °F93 %30.54 in6.2 miWest (270°)15.0 mphMostly Cloudy
4:50 PM37.4 °F35.6 °F93 %30.54 in5.0 miWest (280°)16.1 mphRainLight Rain Showers
5:20 PM37.4 °F35.6 °F93 %30.51 in6.2 miWest (270°)15.0 mphMostly Cloudy
5:50 PM37.4 °F35.6 °F93 %30.54 in6.2 miWest (280°)16.1 mphMostly Cloudy
6:20 PM35.6 °F35.6 °F100 %30.54 in6.2 miWNW (300°)11.5 mphRainLight Rain Showers
6:50 PM37.4 °F35.6 °F93 %30.51 in6.2 miWNW (290°)12.7 mphRainLight Rain Showers
7:00 PM37.0 °F36.0 °F92 %30.58 in12.0 miWNW (290°)13.4 mphRainLight Rain Showers
7:20 PM37.4 °F35.6 °F93 %30.54 in6.2 miWNW (290°)10.4 mphRainLight Rain Showers
7:50 PM37.4 °F35.6 °F93 %30.54 in6.2 miWNW (300°)5.8 mphRainLight Rain Showers
8:20 PM37.4 °F37.4 °F100 %30.51 in6.2 miWNW (300°)5.8 mphRainLight Rain Showers
8:50 PM37.4 °F37.4 °F100 %30.51 in6.2 miWNW (290°)9.2 mphMostly Cloudy
9:20 PM37.4 °F37.4 °F100 %30.51 in6.2 miWest (270°)10.4 mphMostly Cloudy
9:50 PM37.4 °F37.4 °F100 %30.54 in6.2 miWest (280°)9.2 mphMostly Cloudy
10:00 PM38.0 °F37.0 °F96 %30.58 in6.0 miWest (280°)8.9 mphPartly Cloudy
10:20 PM39.2 °F39.2 °F100 %30.54 in6.2 miWest (270°)10.4 mphRainLight Rain Showers
10:50 PM39.2 °F37.4 °F93 %30.54 in6.2 miWest (280°)9.2 mphMostly Cloudy
11:20 PM39.2 °F39.2 °F100 %30.54 in6.2 miWNW (290°)5.8 mphDrizzle
11:50 PM39.2 °F39.2 °F100 %30.54 in6.2 miWNW (290°)6.9 mphRainLight Rain Showers
Hourly data recorded from LOWL, located miles away from Linz, Austria







STORIES FROM OUR PARTNERS